Location: Cactus School
(34.5700°N, 118.0931°W)
Time: 08:38:55
(UTC-07:00)

Vanguard 1 Rocket - Pass Details

Date: 25 April 2024
Orbit: 650 x 4220 km, 34.3° (Epoch: 22 May)

Event Time Altitude Azimuth Distance (km) Brightness Sun altitude
Rises 19:58:13 0° 272° (W) 2,999 11.7 -5.7°
Reaches altitude 10° 20:00:13 10° 272° (W) 2,176 10.8 -6.1°
Maximum altitude 20:05:00 87° 182° (S) 896 7.4 -7.0°
Drops below altitude 10° 20:12:48 10° 95° (E) 3,469 9.8 -8.5°
Enters shadow 20:13:30 - 95° (E) 3,734 9.9 -8.7°
